Location: Adrasan
(36.3319°N, 30.4314°E)
Time: 11:59:24
(UTC+00:00)

Meteor 1-10 Rocket - Pass Details

Date: 21 May 2024
Orbit: 834 x 910 km, 81.3° (Epoch: 16 June)

Event Time Altitude Azimuth Distance (km) Brightness Sun altitude
Exits shadow 18:25:29 18° 105° (ESE) 1,990 5.6 -14.7°
Maximum altitude 18:26:48 20° 87° (E) 1,912 5.6 -14.9°
Drops below altitude 10° 18:30:47 10° 42° (NE) 2,510 6.6 -15.6°
Sets 18:33:49 0° 27° (NNE) 3,437 7.6 -16.0°
